Location: Colorado Springs
(38.8340°N, 104.8210°W)
Time: 16:28:15
(UTC-06:00)

ISS - Pass Details

Date: 16 October 2017
Orbit: 401 x 408 km, 51.6° (Epoch: 18 October)

Event Time Altitude Azimuth Distance (km) Brightness Sun altitude
Rises 18:50:01 0° 306° (NW) 2,322 0.8 -6.8°
Reaches altitude 10° 18:52:07 10° 304° (WNW) 1,460 -0.2 -7.2°
Maximum altitude 18:55:21 66° 221° (SW) 445 -3.4 -7.9°
Drops below altitude 10° 18:58:36 10° 139° (SE) 1,456 -1.4 -8.5°
Enters shadow 19:00:16 - 137° (SE) 2,143 -0.5 -8.8°
